Weather History for KUIL - January, 2012

Change the Weather History Date:

Saturday, January 28, 2012

  Actual Average Record
Temperature  
Mean Temperature 43 °F 42 °F  
Max Temperature 52 °F 48 °F 59 °F (1998)
Min Temperature 34 °F 36 °F 11 °F (1972)
Degree Days  
Heating Degree Days 22 23  
Month to date heating degree days 656  
Since 1 July heating degree days 3134  
Cooling Degree Days 0 0  
Month to date cooling degree days 0  
Year to date cooling degree days 0  
Moisture  
Dew Point 32 °F    
Average Humidity 63    
Maximum Humidity 100    
Minimum Humidity 29    
Precipitation  
Precipitation 0.15 in 0.43 in 1.83 in (2004)
Month to date precipitation 13.32  
Year to date precipitation 13.32  
Sea Level Pressure  
Sea Level Pressure 30.22 in    
Wind  
Wind Speed 7 mph (SSE)    
Max Wind Speed 17 mph    
Max Gust Speed 35 mph    
Visibility 9 miles    
Events Rain , Thunderstorm    
T = Trace of Precipitation, MM = Missing Value Source: NWS Daily Summary

Daily Weather History Graph

Daily Weather History Graph

Search for Another Location

Airport or City:

Trip Planner

Search our weather history database for the weather conditions in past years. The results will help you decide how hot, cold, wet, or windy it might be!

Date:

Astronomy

Jan. 28, 2012 Rise Set
Actual Time 7:51 AM PST 5:11 PM PST
Civil Twilight 7:17 AM PST 5:45 PM PST
Nautical Twilight 6:39 AM PST 6:22 PM PST
Astronomical Twilight 6:03 AM PST 6:59 PM PST
Moon 9:45 AM PST (1/28) 11:38 PM PST (1/28)
Length of Visible Light 10h 27m
Length of Day
9h 20m
Waxing Crescent, 29% of the Moon is Illuminated
Jan 28
Waxing Crescent
Jan 30
First Quarter
Feb 7
Full
Feb 14
Last Quarter
Feb 21
New

Hourly Weather History & Observations

Time (PST) Temp. Windchill Dew Point Humidity Pressure Visibility Wind Dir Wind Speed Gust Speed Precip Events Conditions
12:53 AM 34.0 °F 28.0 °F 32.0 °F 92% 30.44 in 10.0 mi East 6.9 mph - N/A   Overcast
1:53 AM 35.1 °F 31.0 °F 32.0 °F 89% 30.43 in 10.0 mi East 4.6 mph - N/A   Overcast
2:53 AM 35.1 °F 31.0 °F 32.0 °F 89% 30.42 in 10.0 mi NE 4.6 mph - N/A   Overcast
3:53 AM 35.1 °F 30.1 °F 33.1 °F 92% 30.41 in 10.0 mi East 5.8 mph - 0.00 in   Overcast
4:53 AM 36.0 °F 33.3 °F 32.0 °F 86% 30.41 in 10.0 mi East 3.5 mph - N/A   Overcast
5:53 AM 36.0 °F 32.1 °F 33.1 °F 89% 30.40 in 10.0 mi East 4.6 mph - N/A   Overcast
6:53 AM 37.0 °F 33.3 °F 33.1 °F 86% 30.38 in 10.0 mi East 4.6 mph - N/A   Overcast
7:53 AM 36.0 °F - 34.0 °F 93% 30.35 in 10.0 mi Calm Calm - 0.01 in   Overcast
8:53 AM 41.0 °F 38.0 °F 27.0 °F 57% 30.33 in 10.0 mi ESE 4.6 mph - N/A   Overcast
9:53 AM 43.0 °F 40.3 °F 24.1 °F 47% 30.32 in 10.0 mi East 4.6 mph - N/A   Overcast
10:53 AM 44.1 °F 41.5 °F 24.1 °F 45% 30.30 in 10.0 mi ESE 4.6 mph - N/A   Overcast
11:53 AM 46.0 °F 43.1 °F 21.0 °F 37% 30.29 in 10.0 mi SE 5.8 mph - N/A   Overcast
12:53 PM 48.9 °F - 18.0 °F 29% 30.25 in 10.0 mi SSE 8.1 mph 24.2 mph N/A   Overcast
1:53 PM 50.0 °F - 21.9 °F 33% 30.24 in 10.0 mi SSE 8.1 mph - N/A   Overcast
2:53 PM 51.1 °F - 25.0 °F 36% 30.21 in 10.0 mi South 11.5 mph 23.0 mph N/A   Overcast
3:18 PM 50.0 °F - 26.6 °F 40% 30.21 in 10.0 mi South 10.4 mph 20.7 mph N/A   Overcast
3:53 PM 50.0 °F - 27.0 °F 41% 30.21 in 10.0 mi South 10.4 mph 20.7 mph N/A   Overcast
4:53 PM 50.0 °F - 28.0 °F 43% 30.18 in 10.0 mi South 11.5 mph 21.9 mph N/A   Overcast
5:53 PM 50.0 °F - 28.9 °F 44% 30.17 in 10.0 mi South 10.4 mph 20.7 mph N/A   Overcast
6:53 PM 51.1 °F - 32.0 °F 48% 30.14 in 10.0 mi South 12.7 mph 21.9 mph 0.00 in   Overcast
7:53 PM 51.1 °F - 35.1 °F 54% 30.10 in 10.0 mi SSE 8.1 mph - N/A   Overcast
8:00 PM 32.0 °F - 32.0 °F 100% - - North - - N/A   Unknown
8:27 PM 51.8 °F - 35.6 °F 54% 30.08 in 10.0 mi SSE 8.1 mph 17.3 mph N/A   Overcast
8:53 PM 52.0 °F - 34.0 °F 50% 30.07 in 10.0 mi South 9.2 mph 18.4 mph N/A   Overcast
9:00 PM - - - N/A% - - North - - N/A   Unknown
9:07 PM 51.8 °F - 35.6 °F 54% 30.05 in 10.0 mi SSE 9.2 mph 23.0 mph N/A   Overcast
9:36 PM 51.8 °F - 35.6 °F 54% 30.06 in 10.0 mi South 10.4 mph 21.9 mph N/A   Overcast
9:53 PM 52.0 °F - 37.0 °F 57% 30.06 in 10.0 mi South 9.2 mph 21.9 mph 0.00 in Rain Light Rain
10:53 PM 51.1 °F - 39.0 °F 63% 30.05 in 10.0 mi SSW 9.2 mph 26.5 mph 0.00 in Rain Light Rain
11:46 PM 48.2 °F - 42.8 °F 82% 30.04 in 2.5 mi SSW 12.7 mph 26.5 mph 0.05 in Rain , Thunderstorm Heavy Rain
11:53 PM 46.9 °F - 43.0 °F 86% 30.02 in 1.8 mi South 15.0 mph 32.2 mph 0.12 in Rain , Thunderstorm Heavy Rain
11:55 PM 46.4 °F 41.9 °F 42.8 °F 87% 30.02 in 2.0 mi South 9.2 mph 32.2 mph 0.01 in Rain Rain